Time,TemperatureF,DewpointF,PressureIn,WindDirection,WindDirectionDegrees,WindSpeedMPH,WindSpeedGustMPH,Humidity,HourlyPrecipIn,Conditions,Clouds,dailyrainin,SoftwareType,DateUTC
2013-05-09 00:03:00,60.0,53.0,-100.00,SSE,150,0.0,0.0,75,0.00,,,-99.99,,2013-05-09 04:03:00,
2013-05-09 00:13:00,61.0,53.0,-100.00,SSE,150,0.0,0.0,74,0.00,,,-99.99,,2013-05-09 04:13:00,
2013-05-09 00:23:00,59.0,53.0,-100.00,SE,125,0.0,4.0,78,0.00,,,-99.99,,2013-05-09 04:23:00,
2013-05-09 00:33:00,59.0,53.0,-100.00,East,100,0.0,2.0,78,0.00,,,-99.99,,2013-05-09 04:33:00,
2013-05-09 00:43:00,61.0,53.0,-100.00,SE,135,0.0,1.0,74,0.00,,,-99.99,,2013-05-09 04:43:00,
2013-05-09 00:52:00,60.0,53.0,-100.00,WSW,250,0.0,0.0,75,0.00,,,-99.99,,2013-05-09 04:52:00,
2013-05-09 01:02:00,61.0,53.0,-100.00,SSE,165,0.0,1.0,74,0.00,,,-99.99,,2013-05-09 05:02:00,
2013-05-09 01:12:00,60.0,52.0,-100.00,East,85,1.0,5.0,76,0.00,,,-99.99,,2013-05-09 05:12:00,
2013-05-09 01:22:00,59.0,52.0,-100.00,East,85,1.0,7.0,77,0.00,,,-99.99,,2013-05-09 05:22:00,
2013-05-09 01:32:00,59.0,52.0,-100.00,ESE,120,1.0,3.0,77,0.00,,,-99.99,,2013-05-09 05:32:00,
2013-05-09 01:42:00,59.0,52.0,-100.00,East,100,0.0,4.0,77,0.00,,,-99.99,,2013-05-09 05:42:00,
2013-05-09 01:51:00,60.0,52.0,-100.00,East,95,0.0,1.0,76,0.00,,,-99.99,,2013-05-09 05:51:00,
2013-05-09 02:02:00,60.0,53.0,-100.00,West,260,0.0,7.0,77,0.00,,,-99.99,,2013-05-09 06:02:00,
2013-05-09 02:12:00,60.0,53.0,-100.00,SW,230,1.0,3.0,77,0.00,,,-99.99,,2013-05-09 06:12:00,
2013-05-09 02:21:00,61.0,53.0,-100.00,WSW,255,1.0,4.0,76,0.00,,,-99.99,,2013-05-09 06:21:00,
2013-05-09 02:32:00,61.0,53.0,-100.00,SSE,160,0.0,3.0,74,0.00,,,-99.99,,2013-05-09 06:32:00,
2013-05-09 02:42:00,61.0,53.0,-100.00,West,280,0.0,2.0,74,0.00,,,-99.99,,2013-05-09 06:42:00,
2013-05-09 02:52:00,61.0,53.0,-100.00,WSW,245,1.0,4.0,75,0.00,,,-99.99,,2013-05-09 06:52:00,
2013-05-09 03:01:00,60.0,53.0,-100.00,North,5,0.0,1.0,78,0.00,,,-99.99,,2013-05-09 07:01:00,
2013-05-09 03:12:00,60.0,53.0,-100.00,SW,225,0.0,1.0,78,0.00,,,-99.99,,2013-05-09 07:12:00,
2013-05-09 03:21:00,60.0,53.0,-100.00,SW,225,0.0,1.0,78,0.00,,,-99.99,,2013-05-09 07:21:00,
2013-05-09 03:32:00,60.0,53.0,-100.00,SSE,150,0.0,1.0,78,0.00,,,-99.99,,2013-05-09 07:32:00,
2013-05-09 03:42:00,58.0,52.0,-100.00,West,260,0.0,1.0,80,0.00,,,-99.99,,2013-05-09 07:42:00,
2013-05-09 03:52:00,59.0,53.0,-100.00,SW,235,1.0,3.0,79,0.00,,,-99.99,,2013-05-09 07:52:00,
2013-05-09 04:02:00,60.0,53.0,-100.00,WSW,240,2.0,5.0,77,0.00,,,-99.99,,2013-05-09 08:02:00,
2013-05-09 04:11:00,60.0,52.0,-100.00,WSW,250,2.0,6.0,76,0.00,,,-99.99,,2013-05-09 08:11:00,
2013-05-09 04:21:00,60.0,52.0,-100.00,WSW,250,1.0,5.0,74,0.00,,,-99.99,,2013-05-09 08:21:00,
2013-05-09 04:32:00,60.0,52.0,-100.00,West,270,1.0,3.0,74,0.00,,,-99.99,,2013-05-09 08:32:00,
2013-05-09 04:42:00,60.0,52.0,-100.00,West,270,1.0,3.0,74,0.00,,,-99.99,,2013-05-09 08:42:00,
2013-05-09 04:51:00,60.0,52.0,-100.00,South,185,0.0,1.0,75,0.00,,,-99.99,,2013-05-09 08:51:00,
2013-05-09 05:02:00,59.0,52.0,-100.00,NE,55,0.0,2.0,77,0.00,,,-99.99,,2013-05-09 09:02:00,
2013-05-09 05:11:00,58.0,52.0,-100.00,ESE,120,0.0,0.0,78,0.00,,,-99.99,,2013-05-09 09:11:00,
2013-05-09 05:22:00,58.0,52.0,-100.00,South,180,0.0,1.0,79,0.00,,,-99.99,,2013-05-09 09:22:00,
2013-05-09 05:32:00,58.0,52.0,-100.00,SSW,210,0.0,1.0,78,0.00,,,-99.99,,2013-05-09 09:32:00,
2013-05-09 05:43:00,58.0,52.0,-100.00,SW,220,0.0,1.0,78,0.00,,,-99.99,,2013-05-09 09:43:00,
2013-05-09 05:52:00,58.0,52.0,-100.00,SW,220,0.0,1.0,78,0.00,,,-99.99,,2013-05-09 09:52:00,
2013-05-09 06:02:00,59.0,52.0,-100.00,WSW,245,1.0,3.0,76,0.00,,,-99.99,,2013-05-09 10:02:00,
2013-05-09 06:12:00,59.0,52.0,-100.00,WSW,245,2.0,4.0,77,0.00,,,-99.99,,2013-05-09 10:12:00,
2013-05-09 06:22:00,59.0,52.0,-100.00,WSW,245,2.0,4.0,77,0.00,,,-99.99,,2013-05-09 10:22:00,
2013-05-09 06:33:00,59.0,52.0,-100.00,East,100,1.0,3.0,77,0.00,,,-99.99,,2013-05-09 10:33:00,
2013-05-09 06:42:00,59.0,52.0,-100.00,SE,135,0.0,2.0,76,0.00,,,-99.99,,2013-05-09 10:42:00,
2013-05-09 06:52:00,59.0,52.0,-100.00,ESE,115,0.0,2.0,76,0.00,,,-99.99,,2013-05-09 10:52:00,
2013-05-09 07:02:00,59.0,52.0,-100.00,SW,235,0.0,2.0,76,0.00,,,-99.99,,2013-05-09 11:02:00,
2013-05-09 07:12:00,59.0,52.0,-100.00,SW,235,0.0,2.0,76,0.00,,,-99.99,,2013-05-09 11:12:00,
2013-05-09 07:22:00,59.0,52.0,-100.00,West,275,0.0,1.0,76,0.00,,,-99.99,,2013-05-09 11:22:00,
2013-05-09 07:32:00,59.0,52.0,-100.00,West,270,0.0,1.0,75,0.00,,,-99.99,,2013-05-09 11:32:00,
2013-05-09 07:42:00,60.0,52.0,-100.00,SSW,205,0.0,3.0,75,0.00,,,-99.99,,2013-05-09 11:42:00,
2013-05-09 07:52:00,60.0,52.0,-100.00,South,190,0.0,2.0,74,0.00,,,-99.99,,2013-05-09 11:52:00,
2013-05-09 08:01:00,61.0,53.0,-100.00,West,260,1.0,3.0,72,0.00,,,-99.99,,2013-05-09 12:01:00,
2013-05-09 08:12:00,62.0,53.0,-100.00,South,170,0.0,4.0,70,0.00,,,-99.99,,2013-05-09 12:12:00,
2013-05-09 08:22:00,63.0,53.0,-100.00,SW,235,2.0,5.0,68,0.00,,,-99.99,,2013-05-09 12:22:00,
2013-05-09 08:32:00,65.0,53.0,-100.00,WSW,250,1.0,6.0,65,0.00,,,-99.99,,2013-05-09 12:32:00,
2013-05-09 08:42:00,66.0,53.0,-100.00,WNW,290,1.0,4.0,64,0.00,,,-99.99,,2013-05-09 12:42:00,
2013-05-09 08:52:00,66.0,54.0,-100.00,WSW,245,1.0,5.0,63,0.00,,,-99.99,,2013-05-09 12:52:00,
2013-05-09 09:01:00,67.0,54.0,-100.00,WSW,245,1.0,6.0,63,0.00,,,-99.99,,2013-05-09 13:01:00,
2013-05-09 09:12:00,68.0,55.0,-100.00,WSW,250,1.0,8.0,62,0.00,,,-99.99,,2013-05-09 13:12:00,
2013-05-09 09:22:00,69.0,54.0,-100.00,NW,310,1.0,7.0,59,0.00,,,-99.99,,2013-05-09 13:22:00,
2013-05-09 09:32:00,69.0,54.0,-100.00,WNW,285,1.0,6.0,59,0.00,,,-99.99,,2013-05-09 13:32:00,
2013-05-09 09:42:00,69.0,55.0,-100.00,WSW,245,3.0,7.0,60,0.00,,,-99.99,,2013-05-09 13:42:00,
2013-05-09 09:52:00,70.0,55.0,-100.00,WSW,245,2.0,6.0,58,0.00,,,-99.99,,2013-05-09 13:52:00,
2013-05-09 10:02:00,71.0,56.0,-100.00,SW,220,1.0,6.0,58,0.00,,,-99.99,,2013-05-09 14:02:00,
2013-05-09 10:11:00,71.0,55.0,-100.00,WNW,285,2.0,7.0,56,0.00,,,-99.99,,2013-05-09 14:11:00,
2013-05-09 10:22:00,72.0,54.0,-100.00,NNE,25,2.0,6.0,54,0.00,,,-99.99,,2013-05-09 14:22:00,
2013-05-09 10:32:00,72.0,55.0,-100.00,WNW,295,1.0,6.0,54,0.00,,,-99.99,,2013-05-09 14:32:00,
2013-05-09 10:42:00,73.0,54.0,-100.00,SW,220,1.0,5.0,50,0.00,,,-99.99,,2013-05-09 14:42:00,
2013-05-09 10:52:00,73.0,56.0,-100.00,NW,320,2.0,6.0,54,0.00,,,-99.99,,2013-05-09 14:52:00,
2013-05-09 11:01:00,73.0,54.0,-100.00,NNW,340,1.0,5.0,51,0.00,,,-99.99,,2013-05-09 15:01:00,
2013-05-09 11:11:00,73.0,54.0,-100.00,NNW,340,1.0,5.0,51,0.00,,,-99.99,,2013-05-09 15:11:00,
2013-05-09 11:22:00,76.0,56.0,-100.00,NW,325,1.0,4.0,50,0.00,,,-99.99,,2013-05-09 15:22:00,
2013-05-09 11:33:00,76.0,55.0,-100.00,NE,50,0.0,5.0,48,0.00,,,-99.99,,2013-05-09 15:33:00,
2013-05-09 11:43:00,76.0,52.0,-100.00,North,355,0.0,6.0,43,0.00,,,-99.99,,2013-05-09 15:43:00,
2013-05-09 11:53:00,78.0,54.0,-100.00,NNW,330,0.0,7.0,43,0.00,,,-99.99,,2013-05-09 15:53:00,
2013-05-09 12:03:00,77.0,52.0,-100.00,WSW,250,2.0,6.0,41,0.00,,,-99.99,,2013-05-09 16:03:00,
2013-05-09 12:12:00,77.0,53.0,-100.00,WSW,245,4.0,8.0,44,0.00,,,-99.99,,2013-05-09 16:12:00,
2013-05-09 12:23:00,77.0,51.0,-100.00,SSW,205,1.0,6.0,39,0.00,,,-99.99,,2013-05-09 16:23:00,
2013-05-09 12:33:00,78.0,51.0,-100.00,NNW,335,1.0,6.0,39,0.00,,,-99.99,,2013-05-09 16:33:00,
2013-05-09 12:42:00,78.0,52.0,-100.00,NW,305,1.0,6.0,40,0.00,,,-99.99,,2013-05-09 16:42:00,
2013-05-09 12:52:00,78.0,52.0,-100.00,WSW,255,3.0,6.0,39,0.00,,,-99.99,,2013-05-09 16:52:00,
2013-05-09 13:02:00,78.0,52.0,-100.00,WSW,255,3.0,6.0,39,0.00,,,-99.99,,2013-05-09 17:02:00,
2013-05-09 13:12:00,78.0,50.0,-100.00,West,260,4.0,9.0,38,0.00,,,-99.99,,2013-05-09 17:12:00,
2013-05-09 13:21:00,79.0,50.0,-100.00,WSW,240,4.0,10.0,36,0.00,,,-99.99,,2013-05-09 17:21:00,
2013-05-09 13:32:00,78.0,50.0,-100.00,WSW,255,2.0,7.0,36,0.00,,,-99.99,,2013-05-09 17:32:00,
2013-05-09 13:42:00,79.0,51.0,-100.00,NNE,15,0.0,6.0,37,0.00,,,-99.99,,2013-05-09 17:42:00,
2013-05-09 13:55:00,79.0,48.0,-100.00,SW,235,3.0,7.0,33,0.00,,,-99.99,,2013-05-09 17:55:00,
2013-05-09 14:01:00,79.0,52.0,-100.00,South,185,1.0,9.0,39,0.00,,,-99.99,,2013-05-09 18:01:00,
2013-05-09 14:12:00,78.0,49.0,-100.00,WSW,245,3.0,9.0,35,0.00,,,-99.99,,2013-05-09 18:12:00,
2013-05-09 14:21:00,80.0,47.0,-100.00,West,265,2.0,9.0,32,0.00,,,-99.99,,2013-05-09 18:21:00,
2013-05-09 14:32:00,80.0,46.0,-100.00,SW,235,4.0,10.0,30,0.00,,,-99.99,,2013-05-09 18:32:00,
2013-05-09 14:42:00,80.0,46.0,-100.00,SW,230,4.0,9.0,30,0.00,,,-99.99,,2013-05-09 18:42:00,
2013-05-09 14:52:00,80.0,46.0,-100.00,SW,230,2.0,6.0,30,0.00,,,-99.99,,2013-05-09 18:52:00,
2013-05-09 15:01:00,82.0,45.0,-100.00,SW,230,1.0,6.0,27,0.00,,,-99.99,,2013-05-09 19:01:00,
2013-05-09 15:12:00,80.0,40.0,-100.00,East,80,2.0,11.0,23,0.00,,,-99.99,,2013-05-09 19:12:00,
2013-05-09 15:21:00,81.0,42.0,-100.00,WSW,245,4.0,9.0,24,0.00,,,-99.99,,2013-05-09 19:21:00,
2013-05-09 15:32:00,80.0,44.0,-100.00,SW,230,4.0,9.0,27,0.00,,,-99.99,,2013-05-09 19:32:00,
2013-05-09 15:42:00,81.0,43.0,-100.00,West,260,1.0,6.0,25,0.00,,,-99.99,,2013-05-09 19:42:00,
2013-05-09 15:52:00,81.0,42.0,-100.00,West,275,1.0,11.0,24,0.00,,,-99.99,,2013-05-09 19:52:00,
2013-05-09 16:01:00,81.0,42.0,-100.00,NW,320,4.0,11.0,25,0.00,,,-99.99,,2013-05-09 20:01:00,
2013-05-09 16:11:00,81.0,41.0,-100.00,East,90,1.0,6.0,23,0.00,,,-99.99,,2013-05-09 20:11:00,
2013-05-09 16:22:00,81.0,42.0,-100.00,SW,230,4.0,9.0,25,0.00,,,-99.99,,2013-05-09 20:22:00,
2013-05-09 16:32:00,80.0,41.0,-100.00,NW,310,4.0,9.0,24,0.00,,,-99.99,,2013-05-09 20:32:00,
2013-05-09 16:42:00,81.0,38.0,-100.00,WSW,250,1.0,11.0,21,0.00,,,-99.99,,2013-05-09 20:42:00,
2013-05-09 16:52:00,82.0,42.0,-100.00,WSW,255,4.0,9.0,24,0.00,,,-99.99,,2013-05-09 20:52:00,
2013-05-09 17:02:00,80.0,45.0,-100.00,NW,305,1.0,9.0,28,0.00,,,-99.99,,2013-05-09 21:02:00,
2013-05-09 17:12:00,81.0,41.0,-100.00,NW,310,3.0,8.0,24,0.00,,,-99.99,,2013-05-09 21:12:00,
2013-05-09 17:22:00,82.0,43.0,-100.00,SW,230,2.0,7.0,25,0.00,,,-99.99,,2013-05-09 21:22:00,
2013-05-09 17:32:00,81.0,44.0,-100.00,SSW,210,3.0,8.0,26,0.00,,,-99.99,,2013-05-09 21:32:00,
2013-05-09 17:43:00,80.0,43.0,-100.00,WSW,245,3.0,7.0,27,0.00,,,-99.99,,2013-05-09 21:43:00,
2013-05-09 17:52:00,79.0,45.0,-100.00,SW,235,3.0,9.0,29,0.00,,,-99.99,,2013-05-09 21:52:00,
2013-05-09 18:03:00,79.0,45.0,-100.00,North,5,0.0,5.0,29,0.00,,,-99.99,,2013-05-09 22:03:00,
2013-05-09 18:13:00,79.0,44.0,-100.00,SW,225,2.0,6.0,29,0.00,,,-99.99,,2013-05-09 22:13:00,
2013-05-09 18:23:00,78.0,44.0,-100.00,WSW,250,0.0,6.0,29,0.00,,,-99.99,,2013-05-09 22:23:00,
2013-05-09 18:33:00,75.0,47.0,-100.00,WSW,250,3.0,14.0,36,0.00,,,-99.99,,2013-05-09 22:33:00,
2013-05-09 18:42:00,73.0,50.0,-100.00,WNW,295,6.0,16.0,43,0.55,,,-99.99,,2013-05-09 22:42:00,
2013-05-09 18:52:00,71.0,51.0,-100.00,WSW,250,1.0,10.0,48,0.00,,,-99.99,,2013-05-09 22:52:00,
2013-05-09 19:02:00,72.0,51.0,-100.00,North,350,1.0,10.0,47,1.10,,,-99.99,,2013-05-09 23:02:00,
2013-05-09 19:12:00,70.0,52.0,-100.00,North,0,0.0,6.0,51,0.00,,,-99.99,,2013-05-09 23:12:00,
2013-05-09 19:22:00,70.0,53.0,-100.00,North,5,0.0,2.0,55,0.00,,,-99.99,,2013-05-09 23:22:00,
2013-05-09 19:32:00,70.0,52.0,-100.00,NNE,25,0.0,1.0,53,0.00,,,-99.99,,2013-05-09 23:32:00,
2013-05-09 19:42:00,70.0,52.0,-100.00,NE,45,0.0,0.0,53,0.00,,,-99.99,,2013-05-09 23:42:00,
2013-05-09 19:52:00,70.0,53.0,-100.00,NNE,30,0.0,1.0,54,0.00,,,-99.99,,2013-05-09 23:52:00,
2013-05-09 20:01:00,69.0,53.0,-100.00,NNE,20,0.0,0.0,55,0.00,,,-99.99,,2013-05-10 00:01:00,
2013-05-09 20:11:00,69.0,51.0,-100.00,ENE,75,0.0,0.0,51,0.00,,,-99.99,,2013-05-10 00:11:00,
2013-05-09 20:22:00,70.0,51.0,-100.00,ENE,70,0.0,2.0,51,0.00,,,-99.99,,2013-05-10 00:22:00,
2013-05-09 20:32:00,70.0,52.0,-100.00,SSW,200,0.0,3.0,52,0.00,,,-99.99,,2013-05-10 00:32:00,
2013-05-09 20:42:00,69.0,53.0,-100.00,SSE,155,0.0,1.0,56,0.00,,,-99.99,,2013-05-10 00:42:00,
2013-05-09 20:52:00,69.0,52.0,-100.00,SSW,195,1.0,2.0,54,0.00,,,-99.99,,2013-05-10 00:52:00,
2013-05-09 21:01:00,69.0,53.0,-100.00,ESE,110,0.0,3.0,57,0.00,,,-99.99,,2013-05-10 01:01:00,
2013-05-09 21:11:00,69.0,53.0,-100.00,SW,225,0.0,3.0,58,0.00,,,-99.99,,2013-05-10 01:11:00,
2013-05-09 21:21:00,69.0,51.0,-100.00,SW,225,0.0,3.0,53,0.00,,,-99.99,,2013-05-10 01:21:00,
2013-05-09 21:32:00,70.0,51.0,-100.00,SSW,200,0.0,3.0,51,0.00,,,-99.99,,2013-05-10 01:32:00,
2013-05-09 21:42:00,69.0,52.0,-100.00,East,100,0.0,1.0,53,0.00,,,-99.99,,2013-05-10 01:42:00,
2013-05-09 21:52:00,69.0,53.0,-100.00,SW,230,2.0,4.0,55,0.00,,,-99.99,,2013-05-10 01:52:00,
2013-05-09 22:02:00,69.0,54.0,-100.00,SW,225,1.0,6.0,58,0.00,,,-99.99,,2013-05-10 02:02:00,
2013-05-09 22:11:00,69.0,55.0,-100.00,SW,230,3.0,9.0,59,0.00,,,-99.99,,2013-05-10 02:11:00,
2013-05-09 22:21:00,69.0,54.0,-100.00,SW,235,6.0,13.0,60,0.00,,,-99.99,,2013-05-10 02:21:00,
2013-05-09 22:32:00,68.0,55.0,-100.00,WSW,245,3.0,12.0,61,0.00,,,-99.99,,2013-05-10 02:32:00,
2013-05-09 22:42:00,68.0,55.0,-100.00,WSW,245,1.0,6.0,62,0.00,,,-99.99,,2013-05-10 02:42:00,
2013-05-09 22:52:00,68.0,55.0,-100.00,WSW,245,1.0,5.0,63,0.00,,,-99.99,,2013-05-10 02:52:00,
2013-05-09 23:01:00,67.0,55.0,-100.00,SW,225,2.0,6.0,65,0.00,,,-99.99,,2013-05-10 03:01:00,
2013-05-09 23:11:00,67.0,56.0,-100.00,SW,215,1.0,6.0,69,0.55,,,-99.99,,2013-05-10 03:11:00,
2013-05-09 23:22:00,66.0,56.0,-100.00,SSW,200,2.0,6.0,71,2.83,,,-99.99,,2013-05-10 03:22:00,
2013-05-09 23:33:00,66.0,56.0,-100.00,SSW,200,2.0,6.0,71,2.83,,,-99.99,,2013-05-10 03:33:00,
2013-05-09 23:43:00,65.0,57.0,-100.00,NE,50,0.0,2.0,77,0.00,,,-99.99,,2013-05-10 03:43:00,
2013-05-09 23:53:00,64.0,58.0,-100.00,SE,140,0.0,2.0,80,0.00,,,-99.99,,2013-05-10 03:53:00,